Regional Weather Roundup
Issued by NWS Northern Indiana

Home | Current Version | Previous Version | Graphics & Text | Print | Product List | Glossary On
Versions: 1 2 3 4 5 6 7 8 9 10 11 12 13 14 15 16 17 18 19 20 21 22 23 24 25 26 27 28 29 30 31 32 33 34 35 36 37 38 39 40 41 42 43 44 45 46 47 48 49 50
000
ASUS43 KIWX 192110
RWRIWX

KIWX WEATHER ROUNDUP
NATIONAL WEATHER SERVICE NORTHERN INDIANA
400 PM EST SUN FEB 19 2017

NOTE: "FAIR" INDICATES FEW OR NO CLOUDS BELOW 12,000 FEET WITH NO
SIGNIFICANT WEATHER AND/OR OBSTRUCTIONS TO VISIBILITY.

* THESE STATIONS ARE NOT UNDER NWS QUALITY CONTROL. THEY ALSO MAY NOT
  REPORT WEATHER SUCH AS PRECIPITATION OR FOG.

INZ001>027-192200-
NORTHERN INDIANA

CITY           SKY/WX    TMP DP  RH WIND       PRES   REMARKS
GARY*          MOSUNNY   57  28  33 NE5       30.07R
VALPARAISO     SUNNY     65  34  31 S8        30.07R
MICHIGAN CITY* MOSUNNY   59  32  36 N5        30.07S
LAPORTE*       SUNNY     64  35  34 CALM      30.07S
KNOX*          SUNNY     63   1   8 CALM      30.06S
SOUTH BEND     SUNNY     65  26  23 NW10      30.07R
ELKHART*       SUNNY     64  28  25 NW7       30.06R
GOSHEN         SUNNY     64  35  34 SW8       30.06R
MONTICELLO*    SUNNY     62  45  53 S3        30.07R
LOGANSPORT*    SUNNY     61  45  55 CALM      30.09R
ROCHESTER*     SUNNY     64  36  34 SW3       30.08R
WARSAW*        SUNNY     63  36  36 W7        30.07R
ANGOLA*        SUNNY     64  55  72 W10       30.06R
FORT WAYNE     MOSUNNY   64  33  31 W10       30.07R
HUNTINGTON*    SUNNY     64  34  33 W9        30.07R
PERU/GRISSOM   SUNNY     63  45  51 NW3       30.07R
MARION*        SUNNY     62  44  50 W6        30.08S

$$
INZ028>050-192200-
CENTRAL INDIANA

CITY           SKY/WX    TMP DP  RH WIND       PRES   REMARKS
LAFAYETTE      SUNNY     63  46  54 W6        30.08R
KOKOMO*        SUNNY     64  45  49 VRB5      30.09R
MUNCIE*        SUNNY     65  43  44 W8        30.07S
INDIANAPOLIS   MOSUNNY   64  45  49 VRB3      30.08R

$$
MIZ043>046-050>051-056>058-064>065-071>073-077>080-192200-
SOUTHWEST LOWER MICHIGAN

CITY           SKY/WX    TMP DP  RH WIND       PRES   REMARKS
BATTLE CREEK   SUNNY     63  28  26 NW12      30.05R
BENTON HARBOR  MOSUNNY   53  31  42 W6        30.08R
COLDWATER*     SUNNY     64  27  24 W9        30.05R
HILLSDALE*     SUNNY     63  30  29 W12       30.03S
HOLLAND        SUNNY     54  33  45 W9        30.07R
GRAND RAPIDS   MOSUNNY   62  30  29 W13       30.05R
KALAMAZOO      SUNNY     64  24  21 W9        30.06R
STURGIS*       SUNNY     64  29  26 NW7       30.05R
THREE RIVERS*  FAIR      64  29  26 W7        30.06R

$$
OHZ001>008-015>018-024>025-192200-
NORTHWEST OHIO

CITY           SKY/WX    TMP DP  RH WIND       PRES   REMARKS
WAUSEON*       FAIR      64  30  27 W12       30.04R
DEFIANCE       SUNNY     64  29  26 W8        30.05R
FINDLAY        SUNNY     64  34  32 NW10      30.04R
TOLEDO EXPRESS SUNNY     64  29  26 W9        30.04R
TOLEDO METCALF SUNNY     65  32  29 W14       30.04R
LIMA           SUNNY     63  37  38 W10       30.06R

$$
AND FOR LAKE MICHIGAN COASTAL AND OPEN LAKE BUOY OBSERVATIONS

STATION/POSITION TEMP    WIND        PRES    VSBY  WAVE
                 AIR SEA DIR/SP/G                  HT/PER
                 (F)     (DEG/KT/KT) (MB)    (MI)  (FT/S)
CALUMET HARBOR    46      60/  5/  6 1017.6R
MICHIGAN CITY     42      20/  7/  7   N/A
BURNS HARBOR      44      70/  9/  9 1018.6S

$$
&&




USA.gov is the U.S. government's official web portal to all federal, state and local government web resources and services.